Location: Jackson Park
(37.2862°N, 79.9123°W)
Time: 12:06:10
(UTC+00:00)

S-56A Canister/Altair - Pass Details

Date: 14 May 2026
Orbit: 632 x 2484 km, 38.9° (Epoch: 9 June)

Event Time Altitude Azimuth Distance (km) Brightness Sun altitude
Rises 07:03:32 0° 284° (WNW) 3,218 - -28.6°
Reaches altitude 10° 07:05:43 10° 278° (W) 2,430 - -28.4°
Maximum altitude 07:11:12 50° 204° (SSW) 1,302 - -27.8°
Exits shadow 07:14:27 31° 148° (SSE) 1,944 9.3 -27.5°
Drops below altitude 10° 07:19:15 10° 132° (SE) 3,528 10.8 -27.0°
Sets 07:23:01 0° 128° (SE) 4,822 11.6 -26.6°
